Location: Lincolnton
(35.4660°N, 81.2500°W)
Time: 23:40:44
(UTC-04:00)

Hubble Space Telescope - Visible Passes

Search period start: 27 June 2017 00:00
Search period end: 07 July 2017 00:00
Orbit: 538 x 541 km, 28.5° (Epoch: 26 June)

Date Brightness Start Highest point End Pass type
(mag) Time Alt. Az. Time Alt. Az. Time Alt. Az.
28 Jun 3.2 05:18:01 10° SSE 05:18:49 10° SSE 05:19:39 10° SE visible
29 Jun 3.0 05:06:41 10° S 05:08:38 13° SSE 05:10:34 10° SE visible
30 Jun 2.7 04:56:59 13° S 04:58:26 16° SSE 05:00:57 10° ESE visible
01 Jul 2.5 04:47:19 17° S 04:48:15 18° SSE 04:51:09 10° ESE visible
02 Jul 2.2 04:37:39 21° S 04:38:05 21° SSE 04:41:15 10° ESE visible
03 Jul 2.1 04:28:00 24° SSE 04:28:00 24° SSE 04:31:16 10° ESE visible
04 Jul 2.1 04:18:23 25° SSE 04:18:23 25° SSE 04:21:14 10° ESE visible
05 Jul 2.2 04:08:49 24° SE 04:08:49 24° SE 04:11:12 10° ESE visible
05 Jul 1.8 05:44:50 10° WSW 05:48:26 29° S 05:52:01 10° SE visible
06 Jul 2.5 03:59:19 21° SE 03:59:19 21° SE 04:01:06 10° ESE visible
06 Jul 1.9 05:34:46 10° WSW 05:38:17 27° S 05:41:47 10° SE visible
